Home   Weather   Fernando de Noronha   Past weeks

Flag for Brazil Past Weather in Fernando de Noronha, Pernambuco, Brazil — Yesterday and Last 2 Weeks

Now
73 °F

Partly cloudy.


Feels Like: 72 °F
Forecast: 77 / 80 °F
Wind: 5 mph from South

Location: Natal Aeroporto

Current Time: Sep 28, 2016 at 5:05:05 AM

Latest Report: Sep 28, 2016 at 4:00 AM


Visibility: N/A

Pressure: 29.92 "Hg

Humidity: 89%

Dew Point: 70 °F

Location of Fernando de NoronhaLocation

Past Weather in Fernando de Noronha — Graph

°F

Fernando de Noronha Temperature Yesterday

Maximum temperature yesterday: 86 °F (at 12:00 PM)
Minimum temperature yesterday: 72 °F (at 6:00 AM)
Average temperature yesterday: 79 °F

High & Low Weather Summary for the Past Weeks

 TemperatureHumidityPressure
High86 °F (Sep 15, 11:00 AM)94% (Sep 13, 6:00 AM)30.07 "Hg (Sep 13, 6:00 AM)
Low68 °F (Sep 13, 6:00 AM)51% (Sep 25, 12:00 PM)29.86 "Hg (Sep 25, 3:00 PM)
Average78 °F75%29.97 "Hg
* Reported Sep 13 4:00 AM — Sep 28 4:00 AM, Fernando de Noronha, Weather by CustomWeather, © 2016

Note: Actual official high and low records may vary slightly from our data, if they occured in-between our weather recording intervals... More about our weather records

Advertising

Fernando de Noronha Weather History for the Previous 24 Hours

Scroll right to see more
 ConditionsComfort  
Time TempWeatherWind HumidityBarometerVisibility
4:00 AM
Wed, Sep 28
73 °FPartly cloudy.5 mph89%29.92 "HgN/A
3:00 AM73 °FPassing clouds.6 mph89%29.92 "HgN/A
2:00 AM75 °FPassing clouds.5 mph83%29.95 "HgN/A
1:00 AM75 °FPassing clouds.7 mph89%29.95 "HgN/A
12:00 AM77 °FPassing clouds.10 mph83%29.95 "HgN/A
11:00 PM
Tue, Sep 27
77 °FPassing clouds.12 mph83%29.98 "HgN/A
10:00 PM77 °FPassing clouds.10 mph83%29.95 "HgN/A
9:00 PM77 °FPassing clouds.13 mph83%29.95 "HgN/A
8:00 PM79 °FPassing clouds.13 mph79%29.92 "HgN/A
7:00 PM79 °FPassing clouds.15 mph79%29.92 "HgN/A
6:00 PM81 °FPassing clouds.17 mph74%29.89 "HgN/A
5:00 PM82 °FScattered clouds.17 mph66%29.89 "HgN/A
4:00 PM84 °FScattered clouds.17 mph66%29.86 "HgN/A
3:00 PM84 °FPassing clouds.15 mph62%29.86 "HgN/A
2:00 PM84 °FScattered clouds.16 mph66%29.89 "HgN/A
1:00 PM84 °FScattered clouds.15 mph62%29.92 "HgN/A
12:00 PM86 °FScattered clouds.15 mph62%29.95 "HgN/A
11:00 AM84 °FPartly sunny.14 mph62%29.98 "HgN/A
10:00 AM82 °FPartly sunny.12 mph70%29.98 "HgN/A
9:00 AM81 °FPartly sunny.10 mph74%29.98 "HgN/A
8:00 AM77 °FScattered clouds.8 mph83%29.95 "HgN/A
7:00 AM73 °FPassing clouds.5 mph89%29.95 "HgN/A
6:00 AM72 °FPassing clouds.8 mph94%29.89 "HgN/A
5:00 AM73 °FPassing clouds.8 mph89%29.89 "HgN/A
Weather by CustomWeather, © 2016

See weather overviewHow to use our weather pages